User: anonymous   Login
Location: Unspecified
(49.0667°N, 0.0000°E)
Time: 07:09:36
(UTC+00:00)
Language:

SL-14 DEB - Orbit

View from above orbital plane
View from above orbital plane
View from above satellite
View from above satellite

Ground track
Ground track

The orbit is defined by the following mean orbital elements,

1 39983U          26087.65336377 +.00000000 +00000-0 +23525-2 0 00007
2 39983  82.1425 329.9178 0045680  24.5662   5.3400 14.40940996    01
Epoch (UTC): 28 March 2026 15:40:50
Eccentricity: 0.0045680
inclination: 82.1425°
perigee height: 723 km
apogee height: 788 km
right ascension of ascending node: 329.9178°
argument of perigee: 24.5662°
revolutions per day: 14.40940996
mean anomaly at epoch: 5.3400°

The dashed part of the orbit path shows where the satellite is in the earth's shadow,  

DLR